Location: Lane
(33.5226°N, 79.8788°W)
Time: 03:30:46
(UTC+00:00)

Tiros 1 despin weight - Pass Details

Date: 09 October 2022
Orbit: 590 x 637 km, 48.2° (Epoch: 30 November)

Event Time Altitude Azimuth Distance (km) Brightness Sun altitude
Rises 21:33:22 0° 307° (NW) 2,844 ? 15.4°
Reaches altitude 10° 21:37:05 10° 338° (NNW) 1,954 ? 14.7°
Maximum altitude 21:38:52 12° 2° (N) 1,821 ? 14.3°
Drops below altitude 10° 21:40:41 10° 26° (NNE) 1,966 ? 13.9°
Sets 21:44:27 0° 57° (ENE) 2,885 ? 13.2°
